Chesapeake, VA

9:14 PM EDT on September 28, 2016 (GMT -0400)
Fentress Naval Air Landing Field

Weather History for KNFE - July, 2014

Change the Weather History Date:

Tuesday, July 15, 2014

  Actual Average (KORF) Record (KORF)
Temperature  
Mean Temperature 85 °F 80 °F  
Max Temperature 95 °F 88 °F 101 °F (1995)
Min Temperature 75 °F 72 °F 62 °F (1940)
Degree Days  
Heating Degree Days 0 0  
Month to date heating degree days 0  
Since 1 June heating degree days 6  
Since 1 July heating degree days 0  
Cooling Degree Days 20 15  
Month to date cooling degree days 219  
Year to date cooling degree days 700  
Since 1 June cooling degree days 534  
Growing Degree Days 35 (Base 50)    
Moisture  
Dew Point 74 °F    
Average Humidity 74    
Maximum Humidity 85    
Minimum Humidity 52    
Precipitation  
Precipitation 0.25 in 0.17 in 2.79 in (1950)
Month to date precipitation 2.24  
Year to date precipitation 23.52  
Snow  
Snow 0.00 in 0.00 in 0.00 in (2002)
Month to date snowfall 0.0  
Since 1 July snowfall 0.0  
Snow Depth -    
Sea Level Pressure  
Sea Level Pressure 29.83 in    
Wind  
Wind Speed 7 mph (SSW)    
Max Wind Speed 29 mph    
Max Gust Speed 45 mph    
Visibility 9 miles    
Events Rain , Thunderstorm    
T = Trace of Precipitation, MM = Missing Value Source: NWS Daily Summary

Daily Weather History Graph

Daily Weather History Graph

Search for Another Location

Airport or City:

Trip Planner

Search our weather history database for the weather conditions in past years. The results will help you decide how hot, cold, wet, or windy it might be!

Date:

Astronomy

Jul. 15, 2014 Rise Set
Actual Time 5:57 AM EDT 8:23 PM EDT
Civil Twilight 5:27 AM EDT 8:52 PM EDT
Nautical Twilight 4:50 AM EDT 9:29 PM EDT
Astronomical Twilight 4:10 AM EDT 10:10 PM EDT
Moon 10:37 PM EDT (7/15) 9:42 AM EDT (7/15)
Length of Visible Light 15h 25m
Length of Day
14h 25m
Waning Gibbous, 85% of the Moon is Illuminated
Jul 15
Waning Gibbous
Jul 18
Last Quarter
Jul 26
New
Aug 3
First Quarter
Aug 10
Full

Hourly Weather History & Observations

Time (EDT) Temp. Heat Index Dew Point Humidity Pressure Visibility Wind Dir Wind Speed Gust Speed Precip Events Conditions
12:56 AM 82.0 °F 87.9 °F 73.9 °F 76% 29.89 in 10.0 mi Variable 6.9 mph - N/A   Clear
1:56 AM 81.0 °F 86.2 °F 73.9 °F 79% 29.88 in 10.0 mi South 5.8 mph - N/A   Clear
2:56 AM 81.0 °F 86.7 °F 75.0 °F 82% 29.88 in 10.0 mi Variable 3.5 mph - N/A   Clear
3:56 AM 81.0 °F 86.7 °F 75.0 °F 82% 29.87 in 10.0 mi SSW 8.1 mph - N/A   Mostly Cloudy
4:56 AM 81.0 °F 86.7 °F 75.0 °F 82% 29.86 in 10.0 mi South 5.8 mph - N/A   Mostly Cloudy
5:56 AM 80.1 °F 84.5 °F 73.9 °F 81% 29.86 in 10.0 mi Variable 4.6 mph - N/A   Partly Cloudy
6:56 AM 81.0 °F 86.7 °F 75.0 °F 82% 29.86 in 10.0 mi Variable 4.6 mph - N/A   Mostly Cloudy
7:56 AM 82.0 °F 88.6 °F 75.0 °F 79% 29.86 in 10.0 mi Variable 4.6 mph - N/A   Mostly Cloudy
8:14 AM 82.9 °F 90.2 °F 75.0 °F 77% 29.86 in 10.0 mi SW 6.9 mph - N/A   Mostly Cloudy
8:52 AM 84.2 °F 94.1 °F 77.0 °F 79% 29.85 in 10.0 mi Variable 5.8 mph - N/A   Scattered Clouds
8:56 AM 86.0 °F 96.0 °F 75.9 °F 72% 29.86 in 10.0 mi Variable 5.8 mph - N/A   Scattered Clouds
9:56 AM 88.0 °F 97.5 °F 75.0 °F 65% 29.85 in 10.0 mi Variable 4.6 mph - N/A   Partly Cloudy
10:56 AM 91.0 °F 102.9 °F 75.9 °F 61% 29.85 in 10.0 mi South 9.2 mph - N/A   Clear
11:56 AM 91.9 °F 103.9 °F 75.9 °F 59% 29.84 in 10.0 mi South 11.5 mph - N/A   Partly Cloudy
12:56 PM 93.9 °F 108.4 °F 77.0 °F 58% 29.84 in 10.0 mi South 11.5 mph - N/A   Scattered Clouds
1:56 PM 95.0 °F 106.7 °F 75.0 °F 52% 29.81 in 10.0 mi SW 8.1 mph 19.6 mph N/A   Partly Cloudy
2:47 PM 91.9 °F 105.9 °F 77.0 °F 62% 29.78 in 10.0 mi South 8.1 mph - 0.00 in Rain , Thunderstorm Light Thunderstorms and Rain
2:56 PM 93.9 °F 108.4 °F 77.0 °F 58% 29.77 in 10.0 mi South 5.8 mph - 0.00 in Thunderstorm Thunderstorm
3:13 PM 95.0 °F 109.7 °F 77.0 °F 56% 29.75 in 10.0 mi South 11.5 mph - N/A   Scattered Clouds
3:35 PM 93.9 °F 105.4 °F 75.0 °F 54% 29.75 in 10.0 mi South 15.0 mph - N/A Thunderstorm Thunderstorm
3:56 PM 90.0 °F 100.2 °F 75.0 °F 61% 29.77 in 10.0 mi SSW 28.8 mph 44.9 mph 0.00 in Rain , Thunderstorm Light Thunderstorms and Rain
4:06 PM 79.0 °F - 68.0 °F 69% 29.81 in 1.5 mi South 24.2 mph 43.7 mph 0.11 in Rain , Thunderstorm Thunderstorms and Rain
4:15 PM 77.0 °F - 70.0 °F 79% 29.84 in 1.0 mi WSW 9.2 mph 32.2 mph 0.23 in Rain , Thunderstorm Heavy Thunderstorms and Rain
4:24 PM 75.9 °F - 70.0 °F 82% 29.82 in 3.0 mi WSW 8.1 mph 17.3 mph 0.24 in Rain , Thunderstorm Light Thunderstorms and Rain
4:56 PM 78.1 °F - 72.0 °F 81% 29.82 in 10.0 mi South 4.6 mph - 0.24 in Thunderstorm Thunderstorm
5:33 PM 79.0 °F - 72.0 °F 79% 29.77 in 8.0 mi South 9.2 mph - 0.01 in Rain Light Rain
5:56 PM 79.0 °F - 73.0 °F 82% 29.78 in 10.0 mi SSW 8.1 mph - 0.01 in   Scattered Clouds
6:56 PM 80.1 °F 84.5 °F 73.9 °F 81% 29.80 in 10.0 mi WSW 5.8 mph - N/A   Clear
7:55 PM 80.1 °F 84.5 °F 73.9 °F 81% 29.83 in 10.0 mi Variable 3.5 mph - 0.00 in   Mostly Cloudy
8:10 PM 79.0 °F - 73.0 °F 82% 29.82 in 10.0 mi Variable 6.9 mph - N/A   Scattered Clouds
8:56 PM 79.0 °F - 73.9 °F 84% 29.83 in 10.0 mi South 6.9 mph - 0.00 in   Partly Cloudy
9:56 PM 78.1 °F - 72.0 °F 81% 29.84 in 10.0 mi Variable 5.8 mph - N/A   Clear
10:16 PM 78.1 °F - 72.0 °F 81% 29.84 in 10.0 mi Variable 4.6 mph - N/A   Mostly Cloudy
10:32 PM 77.0 °F - 71.1 °F 82% 29.83 in 10.0 mi Variable 5.8 mph - N/A   Overcast
10:53 PM 77.0 °F - 71.6 °F 83% 29.83 in 10.0 mi SW 5.8 mph - N/A   Scattered Clouds
10:56 PM 77.0 °F - 71.1 °F 82% 29.84 in 10.0 mi SW 3.5 mph - N/A   Partly Cloudy
11:56 PM 75.9 °F - 71.1 °F 85% 29.83 in 10.0 mi SW 4.6 mph - N/A   Partly Cloudy